Sturgis, MI

3:48 AM EDT on May 23, 2017 (GMT -0400)
Kirsch Municipal

Weather History for KIRS - November, 2012

Change the Weather History Date:

Wednesday, November 14, 2012

  Actual Average (KHAI) Record (KHAI)
Temperature  
Mean Temperature 32 °F -  
Max Temperature 39 °F 47 °F 72 °F (1989)
Min Temperature 24 °F 29 °F 9 °F (1986)
Degree Days  
Heating Degree Days 34    
Moisture  
Dew Point 22 °F    
Average Humidity 70    
Maximum Humidity 86    
Minimum Humidity 56    
Precipitation  
Precipitation 0.00 in - - ()
Sea Level Pressure  
Sea Level Pressure 30.49 in    
Wind  
Wind Speed 3 mph (SE)    
Max Wind Speed 9 mph    
Max Gust Speed -    
Visibility 10 miles    
Events      
Averages and records for this station are not official NWS values.
T = Trace of Precipitation, MM = Missing Value Source: NWS Daily Summary

Daily Weather History Graph

Daily Weather History Graph

Search for Another Location

Airport or City:

Trip Planner

Search our weather history database for the weather conditions in past years. The results will help you decide how hot, cold, wet, or windy it might be!

Date:

Astronomy

Nov. 14, 2012 Rise Set
Actual Time 7:30 AM EST 5:21 PM EST
Civil Twilight 7:00 AM EST 5:51 PM EST
Nautical Twilight 6:27 AM EST 6:25 PM EST
Astronomical Twilight 5:54 AM EST 6:57 PM EST
Moon 8:19 AM EST (11/14) 6:08 PM EST (11/14)
Length of Visible Light 10h 50m
Length of Day
9h 50m
New Moon, 1% of the Moon is Illuminated
Nov 14
New Moon
Nov 20
First Quarter
Nov 28
Full
Dec 6
Last Quarter
Dec 13
New

Hourly Weather History & Observations

Time (EST) Temp. Windchill Dew Point Humidity Pressure Visibility Wind Dir Wind Speed Gust Speed Precip Events Conditions
12:14 AM 26.6 °F 22.6 °F 19.4 °F 74% 30.50 in 10.0 mi SSE 3.5 mph - N/A   Clear
12:35 AM 26.6 °F 22.6 °F 19.4 °F 74% 30.50 in 10.0 mi SSE 3.5 mph - N/A   Clear
12:55 AM 26.6 °F - 19.4 °F 74% 30.51 in 10.0 mi Calm Calm - N/A   Clear
1:15 AM 26.6 °F 22.6 °F 19.4 °F 74% 30.50 in 10.0 mi SE 3.5 mph - N/A   Clear
1:35 AM 26.6 °F 22.6 °F 19.4 °F 74% 30.50 in 10.0 mi SE 3.5 mph - N/A   Clear
1:55 AM 26.6 °F - 19.4 °F 74% 30.50 in 10.0 mi Calm Calm - N/A   Clear
2:15 AM 24.8 °F - 19.4 °F 80% 30.51 in 10.0 mi Calm Calm - N/A   Clear
2:35 AM 24.8 °F - 17.6 °F 74% 30.51 in 10.0 mi Calm Calm - N/A   Clear
2:55 AM 24.8 °F - 17.6 °F 74% 30.52 in 10.0 mi Calm Calm - N/A   Clear
3:14 AM 24.8 °F - 17.6 °F 74% 30.53 in 10.0 mi Calm Calm - N/A   Clear
3:35 AM 24.8 °F - 17.6 °F 74% 30.53 in 10.0 mi Calm Calm - N/A   Clear
3:55 AM 24.8 °F - 17.6 °F 74% 30.53 in 10.0 mi Calm Calm - N/A   Clear
4:15 AM 24.8 °F - 19.4 °F 80% 30.53 in 10.0 mi Calm Calm - N/A   Clear
4:35 AM 24.8 °F - 17.6 °F 74% 30.52 in 10.0 mi Calm Calm - N/A   Clear
4:54 AM 24.8 °F - 17.6 °F 74% 30.52 in 10.0 mi Calm Calm - N/A   Clear
5:15 AM 24.8 °F - 19.4 °F 80% 30.52 in 10.0 mi Calm Calm - N/A   Clear
5:35 AM 24.8 °F - 19.4 °F 80% 30.53 in 10.0 mi Calm Calm - N/A   Clear
5:54 AM 24.8 °F - 19.4 °F 80% 30.53 in 10.0 mi Calm Calm - N/A   Clear
6:15 AM 24.8 °F 19.1 °F 19.4 °F 80% 30.53 in 10.0 mi SSE 4.6 mph - N/A   Clear
6:35 AM 26.6 °F 20.0 °F 19.4 °F 74% 30.53 in 10.0 mi SE 5.8 mph - N/A   Clear
6:54 AM 26.6 °F 19.1 °F 19.4 °F 74% 30.52 in 10.0 mi SE 6.9 mph - N/A   Clear
7:15 AM 26.6 °F 20.0 °F 19.4 °F 74% 30.53 in 10.0 mi SE 5.8 mph - N/A   Clear
7:35 AM 26.6 °F 19.1 °F 19.4 °F 74% 30.53 in 10.0 mi SE 6.9 mph - N/A   Clear
7:54 AM 26.6 °F 21.2 °F 19.4 °F 74% 30.53 in 10.0 mi SE 4.6 mph - N/A   Clear
8:15 AM 26.6 °F 20.0 °F 19.4 °F 74% 30.54 in 10.0 mi SE 5.8 mph - N/A   Clear
8:35 AM 28.4 °F 22.2 °F 19.4 °F 69% 30.54 in 10.0 mi SE 5.8 mph - N/A   Clear
8:54 AM 28.4 °F 21.2 °F 21.2 °F 74% 30.54 in 10.0 mi SE 6.9 mph - N/A   Clear
9:15 AM 28.4 °F 23.3 °F 21.2 °F 74% 30.54 in 10.0 mi SSE 4.6 mph - N/A   Clear
9:35 AM 30.2 °F 24.3 °F 21.2 °F 69% 30.54 in 10.0 mi SE 5.8 mph - N/A   Clear
9:54 AM 32.0 °F 28.7 °F 23.0 °F 69% 30.54 in 10.0 mi SSE 3.5 mph - N/A   Clear
10:15 AM 33.8 °F 29.6 °F 23.0 °F 65% 30.54 in 10.0 mi SSE 4.6 mph - N/A   Clear
10:35 AM 33.8 °F 27.7 °F 23.0 °F 65% 30.55 in 10.0 mi SSE 6.9 mph - N/A   Clear
10:54 AM 33.8 °F 27.7 °F 24.8 °F 70% 30.54 in 10.0 mi SE 6.9 mph - N/A   Clear
11:15 AM 35.6 °F 29.9 °F 23.0 °F 60% 30.54 in 10.0 mi SSE 6.9 mph - N/A   Clear
11:34 AM 35.6 °F 30.7 °F 24.8 °F 65% 30.53 in 10.0 mi SE 5.8 mph - N/A   Clear
11:55 AM 35.6 °F 29.9 °F 23.0 °F 60% 30.53 in 10.0 mi SSE 6.9 mph - N/A   Clear
12:15 PM 35.6 °F 30.7 °F 24.8 °F 65% 30.51 in 10.0 mi SSE 5.8 mph - N/A   Clear
12:34 PM 37.4 °F 33.8 °F 23.0 °F 56% 30.51 in 10.0 mi East 4.6 mph - N/A   Clear
12:55 PM 37.4 °F 32.8 °F 24.8 °F 60% 30.50 in 10.0 mi SE 5.8 mph - N/A   Clear
1:15 PM 37.4 °F 33.8 °F 24.8 °F 60% 30.49 in 10.0 mi East 4.6 mph - N/A   Clear
1:34 PM 39.2 °F 35.0 °F 24.8 °F 56% 30.49 in 10.0 mi SSE 5.8 mph - N/A   Clear
1:55 PM 39.2 °F 37.0 °F 24.8 °F 56% 30.47 in 10.0 mi SE 3.5 mph - N/A   Clear
2:15 PM 39.2 °F 37.0 °F 24.8 °F 56% 30.47 in 10.0 mi South 3.5 mph - N/A   Clear
2:34 PM 39.2 °F 35.9 °F 24.8 °F 56% 30.46 in 10.0 mi SE 4.6 mph - N/A   Clear
2:55 PM 39.2 °F 34.2 °F 24.8 °F 56% 30.45 in 10.0 mi SE 6.9 mph - N/A   Clear
3:14 PM 39.2 °F 34.2 °F 24.8 °F 56% 30.45 in 10.0 mi SE 6.9 mph - N/A   Clear
3:35 PM 39.2 °F 35.0 °F 24.8 °F 56% 30.44 in 10.0 mi SSE 5.8 mph - N/A   Clear
3:55 PM 39.2 °F 33.0 °F 24.8 °F 56% 30.44 in 10.0 mi SE 9.2 mph - N/A   Clear
4:14 PM 37.4 °F 33.8 °F 24.8 °F 60% 30.45 in 10.0 mi South 4.6 mph - N/A   Clear
4:35 PM 37.4 °F 32.8 °F 24.8 °F 60% 30.45 in 10.0 mi SE 5.8 mph - N/A   Clear
4:55 PM 37.4 °F 32.8 °F 24.8 °F 60% 30.45 in 10.0 mi SE 5.8 mph - N/A   Clear
5:14 PM 37.4 °F 33.8 °F 24.8 °F 60% 30.44 in 10.0 mi SSE 4.6 mph - N/A   Clear
5:35 PM 35.6 °F 32.8 °F 24.8 °F 65% 30.44 in 10.0 mi SSE 3.5 mph - N/A   Clear
5:55 PM 35.6 °F 32.8 °F 24.8 °F 65% 30.43 in 10.0 mi SE 3.5 mph - N/A   Clear
6:14 PM 35.6 °F - 24.8 °F 65% 30.43 in 10.0 mi Calm Calm - N/A   Clear
6:35 PM 35.6 °F 32.8 °F 24.8 °F 65% - 10.0 mi ESE 3.5 mph - N/A   Clear
6:54 PM 33.8 °F 30.8 °F 24.8 °F 70% 30.43 in 10.0 mi ESE 3.5 mph - N/A   Clear
7:15 PM 35.6 °F 30.7 °F 24.8 °F 65% 30.42 in 10.0 mi ESE 5.8 mph - N/A   Clear
7:35 PM 35.6 °F 30.7 °F 24.8 °F 65% 30.43 in 10.0 mi ESE 5.8 mph - N/A   Clear
7:54 PM 35.6 °F 31.7 °F 24.8 °F 65% 30.43 in 10.0 mi ESE 4.6 mph - N/A   Clear
8:15 PM 33.8 °F 29.6 °F 24.8 °F 70% 30.42 in 10.0 mi ESE 4.6 mph - N/A   Clear
8:35 PM 33.8 °F - 24.8 °F 70% 30.43 in 10.0 mi Calm Calm - N/A   Clear
8:55 PM 33.8 °F - 24.8 °F 70% 30.43 in 10.0 mi Calm Calm - N/A   Clear
9:34 PM 28.4 °F 24.6 °F 24.8 °F 86% 30.42 in 10.0 mi ESE 3.5 mph - N/A   Clear
9:55 PM 28.4 °F 23.3 °F 24.8 °F 86% 30.41 in 10.0 mi ESE 4.6 mph - N/A   Clear
10:15 PM 28.4 °F - 24.8 °F 86% 30.41 in 10.0 mi Calm Calm - N/A   Clear
10:34 PM 28.4 °F 24.6 °F 24.8 °F 86% 30.40 in 10.0 mi ESE 3.5 mph - N/A   Clear
10:55 PM 28.4 °F - 24.8 °F 86% 30.41 in 10.0 mi Calm Calm - N/A   Clear
11:14 PM 28.4 °F - 24.8 °F 86% 30.41 in 10.0 mi Calm Calm - N/A   Clear
11:35 PM 28.4 °F 24.6 °F 24.8 °F 86% 30.41 in 10.0 mi ESE 3.5 mph - N/A   Clear
11:55 PM 28.4 °F 23.3 °F 24.8 °F 86% 30.40 in 10.0 mi ESE 4.6 mph - N/A   Clear